Tracking 29967 objects as of 5-Dec-2024
HD Live streaming from Space Station
objects crossing your sky now

STARLINK-11121

Track STARLINK-11121 now!
10-day predictions
STARLINK-11121 is classified as:


NORAD ID: 59946
Int'l Code: 2024-107B
Perigee: 345.9 km
Apogee: 347.6 km
Inclination: 53.2 °
Period: 91.3 minutes
Semi major axis: 6717 km
RCS: Unknown
Launch date: June 5, 2024
Source: United States (US)
Launch site: AIR FORCE EASTERN TEST RANGE (AFETR)
Your satellite tracking list
Your tracking list is empty




NASA's NSSDC Master Catalog

Two Line Element Set (TLE):
1 59946U 24107B   24340.47241456  .00001083  00000-0  10608-4 0  9994
2 59946  53.1593 353.3558 0001272  95.0026 265.1140 15.76750048 30114
Source of the keplerian elements: AFSPC